Wind_Speed
40 41 41 42 42 41 39 37 37 40 42 44 45 45 45 47 50 51 54 55 58 59 59 57 49 48 44 46 50 53 51 51 47 43 37 35 36 36 33 30 31 33 34
43 44 45 43 42 41 39 38 39 41 45 45 45 46 48 51 54 56 59 62 64 66 66 59 51 52 50 51 48 51 51 51 48 45 39 36 36 35 32 31 32 33 31
44 45 45 45 43 41 39 40 41 43 46 49 48 50 54 57 61 63 64 68 67 66 60 68 52 53 50 44 46 50 53 52 48 44 40 37 37 36 33 32 31 31 28
43 43 44 44 40 39 40 41 43 46 48 49 52 53 57 60 64 67 69 62 60 62 62 58 60 54 52 48 47 50 51 51 48 44 39 38 38 36 31 31 29 30 29
42 43 42 40 39 39 40 42 44 47 51 49 52 57 60 61 55 53 55 52 53 54 52 51 56 55 54 56 54 57 51 51 46 43 39 40 39 36 31 29 30 30 28
42 42 41 41 41 42 42 43 45 47 49 48 51 55 53 47 48 51 51 48 48 46 45 50 55 54 62 57 57 60 56 52 46 44 40 41 42 36 32 30 30 31 30
41 41 42 44 44 43 42 43 44 45 46 46 47 49 44 45 47 48 48 49 45 43 41 46 51 59 59 53 44 54 51 45 46 43 42 43 39 38 32 31 32 31 31
40 39 42 45 44 42 41 42 41 42 45 43 46 42 44 43 41 39 41 43 41 42 38 42 46 50 53 41 45 44 39 45 40 45 45 43 39 38 33 30 30 32 32
36 38 41 43 42 40 40 39 38 41 43 42 38 39 37 37 35 36 40 40 38 40 38 42 44 46 46 47 43 46 47 38 40 42 45 40 39 37 33 30 30 31 34
38 38 39 40 39 39 36 35 38 41 38 37 37 37 34 32 33 34 40 39 37 35 37 39 40 42 45 43 42 41 38 44 38 45 45 37 37 35 33 31 29 31 31
38 38 37 37 37 37 33 35 37 38 38 35 34 32 29 31 31 31 31 33 34 36 38 34 40 46 41 41 39 33 46 45 46 43 37 35 34 31 30 30 30 30 32
37 36 35 36 36 36 34 35 37 39 37 36 34 30 29 30 31 28 32 35 35 37 40 33 36 40 40 36 31 35 41 40 37 37 36 33 33 31 30 31 32 31 34
37 36 34 35 36 38 37 36 40 41 39 35 35 31 28 30 35 31 32 32 31 38 36 37 34 37 36 41 35 32 20 30 25 31 30 31 32 33 33 34 34 36 37
39 37 36 36 36 37 39 40 44 43 39 36 36 32 30 26 26 30 32 34 29 38 38 38 34 33 31 34 34 35 35 30 32 31 32 32 33 34 35 37 37 38 39
41 41 41 41 40 39 41 43 45 41 40 36 38 30 30 31 28 32 34 29 24 34 34 31 31 34 36 30 33 36 37 36 31 32 33 33 32 34 35 36 37 36 41
47 49 48 47 45 44 43 44 42 38 34 32 31 28 26 32 31 35 37 19 21 27 32 35 36 35 37 29 32 40 38 36 29 34 34 34 34 35 34 35 32 38 38
54 53 52 50 48 45 42 38 36 34 32 30 28 25 20 26 25 30 35 28 23 30 34 37 32 33 32 31 29 30 38 36 33 35 35 32 34 33 33 29 30 31 30
44 37 33 31 26 28 30 32 33 32 24 20 25 21 22 18 16 19 31 29 28 33 32 36 39 38 33 31 35 33 40 39 36 34 31 32 34 35 32 27 27 22 29
16 15 18 19 24 25 25 28 24 16 12 13 13 17 20 25 21 17 19 28 26 29 31 37 37 37 34 38 37 43 43 43 38 35 31 33 33 33 31 28 27 23 19
10 12 14 18 21 21 16 14 7 10 11 9 9 15 13 18 18 19 20 23 22 28 35 30 31 47 43 40 39 45 48 47 42 38 34 32 31 31 32 31 30 27 21
7 9 8 11 11 9 8 7 6 7 8 11 10 9 8 16 19 23 22 21 19 22 30 32 37 42 44 49 47 50 54 49 46 40 37 35 34 34 32 32 32 30 26
8 11 9 7 5 5 5 3 2 3 4 5 7 14 14 9 9 15 19 19 21 19 21 29 29 32 36 43 48 56 50 49 47 43 42 40 40 39 39 38 36 36 34
8 9 10 7 4 2 1 3 4 5 6 7 8 8 10 15 17 15 13 20 22 23 20 20 28 41 38 45 45 46 46 47 51 44 45 46 46 45 45 44 42 41 42
9 7 6 5 4 5 6 8 10 12 13 14 15 16 16 16 16 16 17 21 22 21 24 22 22 27 31 35 40 45 45 47 52 59 51 50 47 53 49 48 49 50 48
10 8 7 5 5 6 7 9 11 13 15 17 18 20 22 23 25 25 24 24 23 25 28 30 29 26 27 29 35 39 39 39 43 46 50 58 61 61 57 57 53 57 58
11 9 7 6 6 7 9 12 15 18 20 22 24 25 26 27 27 28 29 31 33 34 33 33 34 35 37 37 37 37 37 39 43 46 50 53 53 53 53 55 58 53 53
Wind_Direction
266 271 274 272 269 269 266 262 261 263 262 264 267 269 268 265 263 263 264 264 263 263 264 265 261 253 260 263 264 265 263 266 267 263 259 255 255 263 266 267 263 263 259
265 268 269 269 267 266 265 265 264 264 265 264 265 266 267 268 269 267 263 261 258 256 257 259 247 260 262 264 261 261 263 259 258 256 254 252 256 262 264 260 261 261 261
263 263 264 264 264 265 265 266 265 266 268 271 271 270 270 269 268 266 265 260 257 256 242 256 249 252 252 261 257 259 259 260 254 250 251 251 252 259 263 263 262 257 250
260 259 259 261 263 266 267 269 270 271 272 275 277 276 279 276 272 266 261 254 252 251 249 251 247 248 250 253 254 254 253 254 253 251 250 249 252 257 260 261 259 256 255
256 258 259 261 263 264 265 268 271 275 279 280 281 282 279 274 270 264 258 250 249 248 247 241 240 239 247 248 251 246 243 247 246 250 249 250 256 260 259 258 256 248 249
256 258 261 263 264 265 268 269 275 276 281 283 285 279 273 273 270 264 257 248 247 247 247 237 234 235 241 248 254 258 242 236 238 242 245 252 260 257 255 254 253 248 247
253 256 260 263 264 267 271 275 277 282 285 290 283 277 272 273 274 262 250 244 242 243 243 240 236 234 238 247 252 255 219 237 233 241 245 249 258 255 252 247 249 246 247
251 257 260 263 266 269 270 273 279 285 290 289 283 276 276 273 268 249 238 237 235 237 233 236 233 236 237 238 242 248 239 243 238 241 242 247 251 250 250 247 249 246 242
255 258 259 262 265 266 269 273 280 291 290 280 276 276 275 273 255 237 233 231 228 233 225 231 234 234 232 234 236 233 233 231 239 239 245 243 245 244 245 245 243 245 243
256 257 258 260 262 266 269 278 284 294 285 282 272 281 273 269 249 235 228 229 227 227 231 237 231 236 234 239 240 237 233 235 231 231 237 240 242 240 238 243 249 250 248
254 256 257 260 262 265 269 277 287 293 285 285 277 273 267 259 249 242 225 223 220 224 230 241 233 234 237 237 241 240 226 225 218 224 234 236 237 236 237 244 250 255 253
256 256 257 262 263 265 271 279 289 291 281 282 273 272 267 263 248 239 237 233 223 227 235 230 233 235 231 247 236 201 203 207 212 224 227 231 228 229 236 244 252 257 257
259 262 260 258 260 265 272 279 283 285 277 277 272 267 265 266 261 245 233 234 237 233 230 224 231 233 238 235 241 254 230 222 223 227 229 233 235 239 243 249 254 257 260
265 264 263 260 260 263 269 275 279 281 274 275 270 259 256 264 255 247 243 250 242 222 225 228 233 235 240 234 245 255 217 233 227 228 230 235 239 242 248 253 258 259 261
265 263 264 266 266 267 269 273 276 277 275 275 276 263 243 257 239 244 238 235 244 236 242 233 234 233 226 241 243 230 231 228 230 236 235 238 242 246 251 258 261 259 266
270 270 271 271 273 273 274 274 274 272 271 275 270 264 251 242 252 244 237 218 225 231 237 234 233 227 221 232 233 224 232 228 235 240 237 239 244 251 260 262 262 270 259
274 275 275 274 273 272 270 266 261 264 262 273 261 251 247 248 250 243 238 238 229 220 219 237 227 227 222 230 226 229 230 230 234 241 238 242 248 253 257 261 264 267 241
271 269 264 258 248 248 250 250 254 255 254 259 255 262 239 237 243 231 236 237 232 232 241 228 238 239 230 233 241 248 237 236 235 242 244 245 250 254 254 258 265 269 240
229 220 233 224 232 238 239 245 241 236 238 249 249 254 258 244 247 225 222 229 235 235 243 217 239 236 225 234 240 243 241 239 237 241 247 244 244 250 255 255 258 263 263
250 226 229 233 226 221 226 237 256 269 272 254 271 244 251 258 244 238 234 235 248 242 240 236 246 237 224 237 244 243 235 235 235 237 241 246 244 244 249 252 254 260 257
183 151 169 171 174 180 214 226 244 245 274 288 288 274 264 243 250 261 249 236 245 236 229 233 232 224 236 229 225 234 231 230 233 236 238 241 243 243 245 251 255 256 255
142 150 132 130 150 164 175 195 228 252 264 276 290 299 295 295 269 251 253 250 257 260 245 231 235 225 223 233 230 235 232 231 234 238 243 241 243 244 245 244 247 254 255
112 113 120 120 107 113 281 270 282 286 284 289 294 294 295 305 305 300 272 251 243 238 237 240 232 230 229 227 232 235 237 236 235 243 245 250 243 246 248 248 248 249 252
122 114 97 83 48 355 333 319 307 306 305 301 299 298 298 294 290 286 292 293 282 261 246 250 239 232 231 231 233 222 228 233 235 226 242 245 240 249 252 250 252 256 249
72 57 43 18 358 341 329 325 320 319 314 311 306 302 300 295 292 289 288 287 282 284 288 283 274 259 246 247 244 244 251 246 241 235 231 241 254 254 252 247 253 251 253
67 56 40 18 356 337 325 318 315 311 309 306 306 304 302 297 295 294 291 289 287 284 278 276 277 280 283 277 265 258 255 253 249 248 244 243 244 244 245 248 246 248 247
Height
5697 5698 5699 5700 5700 5701 5702 5703 5704 5704 5706 5706 5706 5707 5709 5710 5711 5711 5712 5713 5715 5717 5718 5722 5727 5728 5731 5734 5734 5737 5738 5740 5743 5744 5746 5746 5747 5748 5748 5746 5748 5746 5747
5685 5688 5688 5689 5690 5691 5691 5692 5693 5694 5694 5696 5698 5699 5698 5697 5696 5697 5699 5698 5700 5703 5706 5709 5713 5717 5720 5723 5725 5728 5729 5728 5732 5735 5737 5739 5741 5741 5739 5739 5740 5738 5739
5674 5676 5677 5678 5679 5680 5681 5682 5683 5684 5684 5684 5685 5685 5684 5684 5682 5681 5682 5680 5684 5687 5692 5695 5698 5705 5708 5712 5714 5717 5719 5720 5722 5725 5728 5731 5732 5732 5731 5730 5732 5732 5734
5663 5666 5667 5668 5668 5670 5670 5671 5672 5671 5672 5672 5671 5669 5667 5666 5663 5661 5661 5664 5666 5670 5673 5679 5690 5693 5696 5699 5702 5705 5707 5710 5715 5717 5720 5723 5723 5724 5725 5723 5724 5725 5726
5652 5655 5656 5657 5658 5660 5661 5661 5661 5660 5659 5658 5655 5652 5650 5646 5643 5641 5641 5646 5650 5654 5659 5667 5672 5679 5682 5687 5689 5690 5695 5700 5705 5709 5712 5715 5716 5716 5717 5717 5717 5719 5721
5643 5644 5645 5646 5647 5649 5650 5651 5651 5648 5647 5644 5640 5636 5632 5629 5628 5628 5630 5635 5639 5643 5648 5651 5658 5664 5670 5673 5679 5672 5682 5687 5694 5699 5703 5706 5707 5709 5708 5709 5709 5712 5713
5633 5633 5635 5636 5637 5639 5640 5640 5639 5637 5634 5631 5625 5621 5619 5616 5614 5614 5617 5622 5628 5634 5638 5640 5646 5652 5657 5665 5666 5668 5672 5677 5682 5690 5694 5697 5700 5701 5701 5702 5703 5706 5707
5623 5624 5625 5626 5627 5629 5630 5630 5629 5626 5621 5616 5612 5609 5606 5604 5603 5603 5606 5610 5619 5623 5626 5629 5635 5639 5644 5649 5653 5658 5664 5668 5671 5679 5686 5689 5691 5692 5692 5694 5695 5698 5702
5614 5616 5616 5617 5619 5620 5621 5620 5618 5615 5609 5605 5601 5599 5596 5594 5593 5594 5597 5602 5608 5614 5617 5621 5625 5629 5634 5638 5645 5651 5656 5658 5660 5670 5678 5681 5683 5684 5685 5686 5689 5691 5694
5605 5606 5607 5608 5609 5610 5611 5610 5607 5603 5598 5595 5592 5590 5588 5586 5585 5586 5589 5594 5600 5604 5609 5612 5617 5620 5625 5631 5636 5639 5644 5650 5654 5663 5670 5672 5675 5676 5677 5679 5681 5684 5686
5595 5597 5598 5599 5600 5600 5600 5600 5597 5593 5589 5587 5584 5582 5581 5580 5579 5580 5583 5588 5593 5596 5601 5606 5608 5611 5619 5623 5626 5628 5627 5640 5647 5655 5661 5664 5666 5667 5670 5672 5675 5677 5678
5585 5588 5589 5589 5590 5590 5590 5589 5587 5583 5581 5578 5577 5574 5574 5574 5575 5576 5579 5582 5586 5588 5594 5599 5602 5607 5611 5614 5615 5621 5627 5633 5640 5647 5652 5655 5656 5659 5662 5665 5668 5669 5670
5575 5577 5579 5580 5581 5580 5581 5580 5578 5575 5573 5570 5569 5568 5569 5567 5568 5570 5572 5574 5578 5582 5585 5591 5596 5601 5606 5607 5612 5616 5621 5627 5632 5640 5643 5647 5649 5653 5655 5657 5659 5660 5661
5564 5566 5568 5569 5571 5571 5571 5571 5569 5566 5564 5563 5562 5561 5561 5561 5560 5562 5565 5568 5571 5575 5578 5584 5590 5594 5599 5603 5607 5610 5616 5621 5627 5631 5634 5637 5641 5644 5647 5649 5650 5651 5650
5553 5555 5556 5558 5560 5561 5561 5561 5560 5558 5555 5555 5554 5553 5552 5553 5553 5554 5552 5559 5563 5567 5573 5577 5582 5589 5595 5600 5603 5608 5612 5616 5619 5623 5627 5630 5633 5636 5638 5639 5641 5639 5638
5543 5543 5544 5546 5548 5550 5552 5551 5551 5549 5549 5548 5546 5545 5546 5547 5549 5549 5549 5554 5559 5565 5568 5572 5576 5582 5588 5592 5595 5600 5606 5609 5611 5616 5619 5622 5624 5626 5628 5629 5629 5629 5627
5529 5530 5532 5535 5537 5539 5541 5542 5542 5542 5543 5542 5541 5540 5540 5542 5543 5543 5547 5549 5553 5557 5561 5564 5569 5575 5581 5585 5588 5594 5598 5600 5604 5609 5611 5612 5614 5615 5617 5619 5620 5617 5618
5518 5519 5521 5524 5527 5529 5532 5534 5536 5536 5537 5536 5535 5535 5536 5537 5537 5537 5540 5544 5548 5550 5553 5557 5562 5567 5572 5576 5581 5585 5590 5593 5596 5600 5601 5603 5605 5607 5609 5610 5611 5610 5610
5510 5513 5515 5518 5521 5524 5526 5528 5529 5529 5530 5531 5531 5531 5530 5531 5532 5533 5535 5539 5542 5544 5543 5546 5555 5559 5564 5568 5571 5575 5580 5584 5588 5591 5593 5594 5596 5598 5600 5603 5604 5604 5602
5508 5509 5513 5516 5518 5519 5521 5523 5524 5525 5525 5526 5527 5526 5526 5526 5527 5529 5531 5534 5535 5536 5537 5542 5545 5547 5553 5558 5560 5565 5569 5574 5578 5582 5584 5586 5587 5590 5591 5594 5595 5597 5597
5507 5509 5512 5513 5514 5516 5519 5520 5522 5523 5523 5523 5522 5522 5522 5522 5523 5524 5526 5527 5528 5530 5532 5536 5539 5542 5546 5550 5551 5552 5557 5562 5567 5571 5574 5576 5579 5581 5583 5585 5586 5589 5590
5508 5509 5511 5513 5515 5517 5518 5519 5520 5521 5521 5521 5520 5519 5518 5518 5519 5520 5521 5522 5523 5523 5524 5526 5529 5531 5536 5540 5541 5544 5546 5551 5556 5560 5564 5566 5569 5571 5573 5576 5578 5578 5581
5510 5511 5512 5515 5516 5517 5518 5519 5519 5519 5519 5519 5519 5518 5518 5516 5516 5515 5516 5518 5518 5519 5519 5520 5522 5525 5528 5531 5533 5536 5538 5543 5547 5550 5552 5556 5558 5559 5562 5563 5566 5569 5570
5512 5513 5514 5515 5516 5517 5517 5517 5517 5517 5517 5516 5516 5516 5515 5515 5515 5514 5513 5512 5511 5512 5512 5513 5515 5517 5519 5521 5522 5524 5527 5529 5532 5535 5537 5541 5544 5547 5549 5551 5553 5555 5557
5512 5513 5514 5514 5514 5515 5515 5515 5515 5515 5514 5513 5513 5512 5511 5510 5510 5509 5509 5508 5508 5507 5506 5504 5504 5507 5508 5509 5511 5513 5515 5518 5519 5521 5522 5526 5529 5531 5534 5536 5538 5539 5541
5514 5514 5515 5515 5514 5514 5515 5514 5513 5513 5512 5511 5509 5508 5507 5506 5505 5503 5503 5502 5501 5500 5500 5499 5499 5497 5496 5497 5498 5500 5502 5504 5505 5506 5507 5509 5512 5515 5517 5519 5522 5524 5525